This is the latest recevied weather packets stored in our database for station/object K5IDL. If no packets are shown the sender has not sent any weather packets the latest 10 day(s).
| Time | Temp. | Humidity | Pressure | Rain* | Wind** | Luminosity | Snow |
|---|---|---|---|---|---|---|---|
| 1778003942 | 28.89° C | 65% | 1005.9 hPa | 0 mm | - | 386 W/m² | - |
| 1778003639 | 28.89° C | 66% | 1005.9 hPa | 0 mm | - | 420 W/m² | - |
| 1778003335 | 28.33° C | 67% | 1005.7 hPa | 0 mm | - | 393 W/m² | - |
| 1778003033 | 28.33° C | 68% | 1006.1 hPa | 0 mm | - | 393 W/m² | - |
| 1778002728 | 28.33° C | 67% | 1006 hPa | 0 mm | - | 297 W/m² | - |
| 1778002425 | 27.78° C | 68% | 1005.9 hPa | 0 mm | - | 250 W/m² | - |
| 1778002122 | 27.78° C | 69% | 1006 hPa | 0 mm | - | 268 W/m² | - |
| 1777999529 | 27.22° C | 69% | 1006.1 hPa | 0 mm | - | 251 W/m² | - |
| 1777999227 | 27.22° C | 69% | 1006.1 hPa | 0 mm | - | 251 W/m² | - |
| 1777998925 | 27.22° C | 69% | 1006 hPa | 0 mm | - | 329 W/m² | - |
| 1777998621 | 26.11° C | 72% | 1006.1 hPa | 0 mm | - | 324 W/m² | - |
| 1777998315 | 26.67° C | 71% | 1006 hPa | 0 mm | - | 225 W/m² | - |
| 1777998012 | 26.67° C | 70% | 1005.9 hPa | 0 mm | - | 190 W/m² | - |
| 1777997708 | 26.67° C | 71% | 1005.7 hPa | 0 mm | - | 224 W/m² | - |
| 1777997406 | 26.67° C | 71% | 1005.7 hPa | 0 mm | - | 261 W/m² | - |
| 1777997104 | 26.11° C | 72% | 1005.8 hPa | 0 mm | - | 348 W/m² | - |
| 1777996800 | 26.11° C | 72% | 1005.5 hPa | 0 mm | - | 215 W/m² | - |
| 1777996496 | 26.11° C | 72% | 1005.7 hPa | 0 mm | - | 259 W/m² | - |
| 1777996193 | 26.11° C | 72% | 1005.7 hPa | 0 mm | - | 275 W/m² | - |
| 1777995889 | 26.11° C | 72% | 1005.4 hPa | 0 mm | - | 222 W/m² | - |
| 1777995585 | 26.11° C | 73% | 1005.5 hPa | 0 mm | - | 238 W/m² | - |
| 1777995283 | 26.11° C | 72% | 1005.5 hPa | 0 mm | - | 278 W/m² | - |
| 1777994980 | 26.11° C | 73% | 1005.3 hPa | 0 mm | - | 267 W/m² | - |
| 1777994677 | 25.56° C | 75% | 1005.5 hPa | 0 mm | - | 283 W/m² | - |
| 1777994378 | 25° C | 75% | 1005.7 hPa | 0 mm | - | 173 W/m² | - |
* Rain latest hour (hover to see other rain measurements)
** Current wind speed in m/s (hover to see current wind gust speed)